Hourly Data Report for September 20, 2019

All times are specified in Local Standard Time (LST). Add 1 hour to adjust for Daylight Saving Time where and when it is observed.

EUREKA CLIMATE
NUNAVUT
Current Station Operator: ECCC - MSC

79°59'21.000" N
85°56'02.000" W
10.00 m
2401199
71613
NEK

Download Data

Hourly Data (September 2019)
Hourly Data Report for September 20, 2019
TIME Temp Definition
°C
Dew Point Definition
°C
Rel Hum Definition
%
Wind Dir Definition
10's deg

Wind Spd Definition
km/h
Visibility Definition
km
Stn Press Definition
kPa
Hmdx Definition


Wind Chill Definition


Weather Definition


00:00 -8.4 -9.1 95 1 8   101.12   -13 LegendNANA
01:00 -8.2 -8.9 95 1 10   101.11   -13 LegendNANA
02:00 -8.0 -8.5 96 36 9   101.11   -13 LegendNANA
03:00 -8.3 -9.1 94 1 9   101.12   -13 LegendNANA
04:00 -8.8 -9.6 94 2 10   101.11   -14 LegendNANA
05:00 -8.9 -9.5 95 1 10   101.09   -14 LegendNANA
06:00 -8.8 -9.7 93 1 10   101.09   -14 LegendNANA
07:00 -8.7 -9.6 93 36 12   101.06   -14 LegendNANA
08:00 -7.8 -9.5 88 35 11   101.03   -13 LegendNANA
09:00 -7.8 -9.6 87 1 10   101.02   -13 LegendNANA
10:00 -7.2 -8.8 88 32 8   100.98   -11 LegendNANA
11:00 -6.4 -7.6 91 28 16   100.97   -13 LegendNANA
12:00 -6.9 -8.5 89 34 9   100.96   -11 LegendNANA
13:00 -6.2 -6.7 96 31 10   100.97   -11 LegendNANA
14:00 -7.1 -8.2 91 34 9   100.96   -11 LegendNANA
15:00 -7.0 -8.0 92 34 10   100.97   -12 LegendNANA
16:00 -8.0 -9.1 92 36 11   100.95   -13 LegendNANA
17:00 -7.7 -8.5 94 35 12   100.95   -13 LegendNANA
18:00 -9.0 -10.0 93 36 15   100.93   -16 LegendNANA
19:00 -9.4 -10.3 93 1 15   100.91   -16 LegendNANA
20:00 -8.9 -9.8 93 1 13   100.89   -15 LegendNANA
21:00 -9.1 -9.4 98 36 14   100.86   -15 LegendNANA
22:00 -9.9 -10.5 95 36 11   100.85   -15 LegendNANA
23:00 -9.7 -10.2 96 36 13   100.85   -16 LegendNANA

Notes on Data Quality.

Legend

  • E = Estimated
  • M = Missing
  • NA = Not Available
Date modified: